Wind_Speed
84 84 85 85 86 86 87 88 89 90 89 89 90 90 90 90 90 92 92 92 93 94 95 94 92 90 87 85 84 84 83 83 82 81 79 77 76 73
84 83 84 84 85 86 87 88 89 89 89 90 90 90 90 90 91 93 94 95 95 96 97 98 98 96 94 93 91 88 87 87 86 85 83 82 81 79
87 88 89 91 91 91 91 92 93 95 94 92 93 94 92 91 92 93 94 95 97 98 99 100 101 102 101 99 96 94 94 91 90 89 88 87 86 85
92 92 93 94 94 94 93 94 95 97 97 97 97 96 97 97 97 97 97 97 98 97 98 99 101 102 103 104 104 102 98 96 96 93 93 92 91 90
94 95 95 96 96 97 97 98 99 101 101 102 100 101 103 104 104 104 104 105 104 103 104 104 103 102 102 104 107 108 106 103 99 100 98 95 94 95
94 95 96 97 99 100 101 102 103 105 106 107 107 107 108 108 109 110 111 112 111 111 111 109 107 108 108 107 106 109 111 110 108 105 103 101 100 98
99 99 99 100 100 99 101 102 104 105 106 107 107 107 108 108 108 109 111 112 111 112 113 113 112 111 111 113 114 112 111 112 112 111 109 107 105 104
99 98 96 93 92 93 93 92 94 93 91 91 93 96 95 94 94 98 102 105 107 105 108 110 111 112 111 113 116 118 118 116 115 115 115 114 113 111
91 87 82 78 77 77 78 78 77 78 81 83 83 83 83 83 87 89 89 92 93 94 95 99 99 102 103 106 108 113 118 118 120 120 119 118 118 118
74 70 67 66 67 70 72 74 74 75 76 77 79 79 79 78 79 81 81 84 85 87 87 89 87 89 93 96 98 99 104 112 117 121 123 123 122 121
64 64 65 65 67 70 73 74 74 74 75 76 78 78 76 74 74 75 75 78 79 78 78 83 82 83 84 85 86 88 90 98 107 113 119 123 126 127
65 65 66 68 70 72 74 74 75 73 74 75 74 74 72 70 69 69 70 73 73 73 69 76 77 79 82 80 82 82 85 87 91 98 107 114 121 127
67 68 68 70 71 72 73 74 74 72 70 70 70 69 67 65 64 64 64 67 69 69 67 71 74 77 81 84 81 79 83 83 86 90 95 101 109 118
68 68 68 70 70 70 71 72 70 68 67 66 65 62 61 59 59 60 61 63 66 68 67 68 73 74 77 79 78 73 71 72 76 80 85 90 97 105
69 68 68 68 68 69 69 67 66 64 62 60 59 57 57 57 58 59 60 62 63 62 62 61 62 62 63 65 65 61 61 57 63 68 71 76 82 88
68 68 68 68 68 68 64 62 59 57 55 54 54 54 55 57 57 55 56 54 56 54 53 52 54 55 58 57 58 56 51 50 50 54 59 66 71 76
69 68 68 69 67 62 59 56 53 50 48 50 54 53 52 51 49 48 48 48 50 47 45 45 46 49 51 50 49 48 43 41 39 45 54 59 61 64
70 70 68 64 59 56 52 48 45 43 47 49 48 48 46 44 43 43 44 44 43 41 39 38 40 43 46 45 45 43 39 40 41 41 47 52 53 54
70 65 60 55 52 48 44 42 43 43 43 43 42 40 40 40 40 39 38 38 37 35 34 36 37 40 41 39 33 46 46 42 44 41 43 47 49 48
60 56 52 46 43 41 41 40 38 37 36 36 37 37 37 37 35 34 33 32 33 33 33 35 37 40 44 40 39 39 46 47 49 50 50 50 48 50
48 46 41 38 36 37 35 35 34 31 31 32 32 32 31 32 30 29 30 33 35 35 35 35 36 41 45 47 46 45 45 48 51 54 53 54 53 56
35 34 34 32 32 30 30 28 26 26 26 26 26 27 27 27 27 29 31 32 32 35 37 38 39 44 48 50 50 50 48 47 49 53 54 56 57 58
29 29 27 25 26 25 22 22 21 20 21 21 21 22 25 26 28 28 30 33 37 39 41 43 45 48 50 52 54 54 53 53 55 57 56 59 62 60
Wind_Direction
272 272 272 272 272 272 272 272 271 269 267 267 268 267 266 264 263 263 262 261 261 261 261 260 260 257 254 252 251 251 250 250 250 250 250 250 251 251
272 271 271 271 272 273 273 272 272 271 270 268 266 265 266 267 266 265 263 263 262 261 259 259 259 259 259 256 251 250 250 249 249 249 249 249 249 250
272 273 273 274 274 275 275 274 273 273 272 270 269 267 267 267 266 264 264 263 262 262 261 260 258 257 257 258 257 254 250 248 248 248 248 248 248 248
274 274 274 274 274 273 273 272 272 272 272 270 269 269 269 268 266 264 262 262 261 260 260 259 259 258 257 256 257 256 255 252 248 247 247 247 246 247
276 276 275 275 275 275 274 274 274 273 272 271 270 270 269 269 268 266 264 263 262 262 261 260 259 258 257 256 256 255 255 254 253 250 247 246 245 245
276 276 276 276 276 275 275 275 274 274 273 273 272 271 271 270 269 267 265 264 263 262 261 260 259 258 257 257 256 255 254 253 253 252 250 248 246 244
278 279 279 279 279 280 279 279 279 278 277 276 275 274 273 273 272 271 269 267 265 264 263 261 260 259 258 256 255 255 254 252 252 251 250 249 248 246
281 282 282 281 281 280 279 279 279 278 277 276 276 276 274 273 271 269 269 268 267 266 265 263 263 261 259 258 256 254 253 252 251 250 250 249 248 247
281 280 279 278 277 278 278 278 278 278 278 277 277 275 273 272 271 270 268 266 264 263 263 262 262 260 259 257 255 254 253 252 250 249 249 248 248 247
276 273 273 274 276 278 280 280 281 281 280 280 278 277 275 273 271 270 267 265 264 264 264 263 259 259 259 258 256 255 254 252 250 249 248 247 247 247
271 272 274 276 279 282 284 283 282 281 281 280 279 278 276 274 272 269 267 266 264 264 263 264 263 261 259 259 258 257 256 253 251 250 248 247 246 245
271 274 277 280 282 284 284 284 283 284 282 279 277 276 274 272 270 270 269 268 268 265 264 264 263 265 264 263 262 261 259 257 254 252 250 247 246 245
273 276 279 282 283 283 283 284 285 284 280 278 276 274 273 272 271 270 269 269 269 268 265 266 267 268 268 267 264 263 263 260 257 253 252 250 248 246
277 279 281 281 282 283 284 287 286 282 280 277 274 273 272 272 270 269 269 269 271 272 272 272 272 272 271 270 268 264 262 260 258 255 252 250 249 248
279 279 280 281 283 285 287 285 282 280 279 278 276 274 272 271 270 270 271 273 273 273 273 272 273 273 272 271 269 264 262 257 257 254 252 249 247 246
278 279 281 282 285 287 285 282 281 280 278 275 274 273 271 271 274 276 273 271 271 271 272 273 272 272 271 271 271 269 267 260 254 254 252 248 247 247
278 280 282 285 287 284 282 282 279 277 275 272 271 273 275 275 274 274 274 273 273 273 271 270 269 270 271 272 270 270 268 263 254 247 248 249 247 248
277 280 283 285 283 283 281 278 275 270 268 271 276 275 275 274 273 272 274 275 275 275 274 271 268 267 268 268 275 273 267 260 255 249 252 253 248 249
278 281 281 280 280 277 275 271 268 270 273 274 273 273 274 273 273 274 276 276 277 277 274 273 273 272 270 267 261 268 271 269 270 267 263 260 256 248
276 277 278 277 273 271 269 271 272 271 270 270 271 270 271 273 276 277 277 276 276 275 273 274 276 277 276 275 265 261 268 272 271 270 267 265 261 254
271 272 272 270 267 266 267 269 269 269 269 268 268 270 273 275 276 278 278 278 279 279 277 275 276 278 277 274 274 272 270 270 272 271 270 267 263 260
265 265 265 262 262 266 267 266 266 266 264 266 267 270 271 275 280 279 281 282 282 285 285 285 283 280 278 280 281 280 278 274 272 272 270 268 265 262
257 256 259 262 262 261 263 264 262 260 262 264 265 271 276 280 285 290 291 290 290 287 287 286 283 282 283 283 284 283 282 281 277 272 268 269 268 266
Height
5610 5610 5609 5608 5607 5606 5606 5607 5608 5612 5616 5617 5615 5615 5618 5621 5624 5623 5625 5627 5630 5632 5636 5640 5645 5651 5656 5661 5666 5671 5676 5682 5686 5692 5698 5703 5707 5712
5587 5586 5585 5585 5584 5583 5582 5582 5582 5583 5588 5589 5590 5591 5591 5594 5596 5597 5599 5600 5603 5605 5609 5613 5617 5622 5628 5635 5641 5646 5651 5658 5664 5670 5676 5682 5686 5692
5563 5563 5563 5561 5560 5559 5557 5556 5556 5555 5559 5564 5562 5563 5565 5566 5569 5569 5571 5573 5575 5577 5580 5584 5588 5593 5599 5606 5612 5619 5625 5632 5639 5645 5652 5659 5664 5670
5539 5539 5538 5535 5535 5533 5530 5529 5529 5527 5528 5534 5535 5536 5536 5536 5538 5541 5543 5544 5546 5549 5550 5553 5557 5563 5568 5575 5582 5589 5595 5603 5612 5618 5625 5636 5640 5646
5513 5512 5511 5508 5508 5505 5503 5502 5500 5500 5499 5501 5506 5505 5506 5505 5507 5509 5510 5512 5515 5519 5520 5522 5527 5531 5536 5543 5550 5557 5564 5573 5582 5588 5597 5605 5613 5621
5487 5486 5484 5482 5480 5477 5474 5472 5470 5469 5468 5467 5471 5474 5473 5474 5473 5473 5474 5475 5482 5483 5484 5490 5495 5500 5505 5511 5519 5525 5530 5539 5548 5556 5565 5574 5584 5593
5460 5457 5455 5452 5449 5445 5442 5441 5438 5436 5434 5433 5435 5437 5440 5440 5437 5435 5434 5437 5445 5444 5445 5452 5463 5467 5472 5475 5480 5487 5495 5505 5513 5522 5531 5540 5551 5561
5432 5429 5427 5423 5419 5415 5412 5409 5407 5406 5405 5401 5401 5401 5405 5405 5402 5397 5398 5400 5408 5404 5400 5420 5419 5429 5436 5438 5443 5450 5458 5467 5476 5486 5494 5504 5514 5526
5405 5403 5400 5397 5393 5389 5386 5384 5382 5380 5376 5373 5375 5375 5375 5373 5369 5367 5367 5364 5369 5370 5367 5384 5382 5390 5396 5399 5405 5411 5420 5428 5436 5447 5457 5467 5478 5488
5380 5379 5378 5376 5372 5366 5363 5362 5361 5359 5356 5351 5348 5348 5347 5348 5342 5340 5339 5337 5340 5340 5343 5347 5353 5358 5359 5363 5372 5379 5383 5388 5397 5404 5416 5428 5439 5450
5358 5357 5356 5355 5352 5345 5340 5339 5339 5338 5334 5327 5323 5321 5322 5322 5317 5313 5315 5312 5315 5320 5323 5317 5324 5322 5327 5334 5343 5346 5350 5352 5356 5364 5374 5384 5397 5410
5338 5337 5335 5332 5329 5325 5319 5315 5314 5317 5309 5305 5300 5297 5297 5298 5296 5294 5293 5289 5291 5296 5303 5293 5296 5292 5298 5310 5312 5317 5317 5321 5326 5329 5335 5343 5354 5366
5317 5317 5315 5310 5307 5303 5299 5294 5292 5291 5286 5280 5278 5277 5277 5276 5275 5274 5274 5270 5270 5273 5278 5274 5273 5271 5270 5275 5284 5291 5284 5292 5291 5296 5302 5309 5317 5324
5296 5295 5293 5288 5286 5283 5279 5274 5270 5266 5262 5260 5258 5258 5257 5258 5256 5255 5255 5253 5251 5250 5255 5255 5248 5246 5245 5248 5255 5260 5260 5261 5258 5265 5272 5279 5281 5287
5273 5272 5270 5268 5265 5262 5259 5253 5248 5245 5243 5240 5239 5239 5238 5239 5237 5236 5237 5235 5233 5234 5232 5230 5227 5227 5225 5224 5226 5231 5232 5241 5235 5239 5243 5246 5250 5253
5250 5249 5248 5247 5245 5242 5237 5233 5229 5227 5225 5223 5221 5222 5220 5220 5220 5220 5217 5216 5213 5217 5216 5214 5211 5208 5206 5206 5206 5210 5213 5218 5217 5218 5217 5219 5226 5231
5228 5228 5228 5226 5224 5221 5217 5215 5213 5211 5209 5205 5204 5205 5205 5204 5203 5202 5200 5200 5197 5199 5201 5199 5196 5192 5190 5191 5191 5191 5195 5197 5200 5200 5195 5199 5206 5213
5207 5208 5209 5206 5204 5202 5200 5198 5197 5195 5192 5191 5191 5190 5189 5189 5188 5187 5185 5184 5183 5184 5184 5183 5182 5179 5177 5179 5178 5177 5179 5179 5180 5185 5183 5183 5191 5198
5187 5189 5188 5187 5187 5185 5184 5182 5181 5180 5179 5178 5177 5177 5176 5176 5175 5174 5174 5172 5171 5171 5171 5170 5169 5167 5164 5165 5175 5164 5161 5167 5166 5170 5171 5170 5173 5183
5168 5169 5170 5170 5170 5169 5168 5168 5168 5168 5167 5166 5166 5165 5165 5163 5163 5163 5163 5162 5161 5160 5160 5159 5157 5155 5150 5152 5153 5157 5153 5152 5152 5150 5151 5153 5156 5158
5152 5152 5154 5156 5156 5155 5156 5156 5156 5156 5156 5155 5155 5155 5154 5153 5154 5154 5153 5152 5150 5149 5148 5148 5147 5143 5139 5136 5134 5138 5141 5138 5135 5131 5133 5133 5135 5133
5139 5141 5142 5143 5144 5145 5145 5146 5147 5147 5146 5146 5146 5147 5147 5146 5146 5145 5144 5142 5141 5138 5135 5134 5134 5129 5125 5121 5118 5116 5118 5121 5119 5115 5114 5112 5111 5111
5127 5129 5131 5133 5134 5135 5136 5137 5138 5139 5139 5140 5140 5141 5140 5139 5137 5135 5133 5131 5128 5125 5123 5119 5117 5114 5110 5105 5100 5097 5097 5097 5096 5093 5094 5094 5090 5088